Flag for Botswana Weather past 2 weeks in Molepolole, Botswana

Now
73 °F

Passing clouds.


Feels Like: 75 °F
Forecast: 65 / 83 °F
Wind: 3 mph from Northwest

Location: Seretse Khama International Airport

Current Time: Mar 27, 2015 at 1:09:50 AM

Latest Report: Mar 27, 2015 at 12:00 AM


Visibility: N/A

Pressure: 30.07 "Hg

Humidity: 74%

Dew point: 64 °F

Location of MolepololeLocation

Historic Weather in Molepolole — Graph

°F

Molepolole temperature yesterday

Maximum temperature yesterday: 86 °F (at 5:00 PM)
Minimum temperature yesterday: 66 °F (at 7:00 AM)
Average temperature yesterday: 74 °F

Past Weeks' High & Low Weather Summary

 TemperatureHumidityPressure
High97 °F (Mar 17, 2:00 PM)94% (Mar 26, 7:00 AM)30.21 "Hg (Mar 26, 7:00 AM)
Low57 °F (Mar 14, 6:00 AM)10% (Mar 17, 2:00 PM)29.92 "Hg (Mar 17, 4:00 PM)
Average78 °F47%30.08 "Hg
* Reported Midnight between Mar 11 and Mar 12 — Midnight between Mar 26 and Mar 27, Molepolole, Weather by CustomWeather, © 2015

Note: Actual official high and low records may vary slightly from our data, if they occured in-between our weather recording intervals... More about our weather records

Advertising

Molepolole weather history for previous 24 hours

 ConditionsComfort  
Time TempWeatherWind HumidityBarometerVisibility
12:00 AM
Fri, Mar 27
73 °FPassing clouds.3 mph74%30.07 "HgN/A
11:00 PM
Thu, Mar 26
75 °FClear.5 mph61%30.07 "Hg10 mi
10:00 PM73 °FClear.6 mph65%30.07 "Hg10 mi
9:00 PM75 °FClear.6 mph57%30.04 "Hg10 mi
8:00 PM77 °FClear.3 mph57%30.04 "Hg10 mi
7:00 PM81 °FClear.6 mph48%30.04 "Hg10 mi
6:00 PM84 °FClear.2 mph37%30.04 "Hg10 mi
5:00 PM86 °FPartly sunny.3 mph35%30.04 "HgN/A
4:00 PM84 °FPartly sunny.2 mph37%30.04 "HgN/A
3:00 PM84 °FScattered clouds.6 mph37%30.07 "HgN/A
2:00 PM82 °FPassing clouds.7 mph42%30.07 "HgN/A
1:00 PM79 °FPassing clouds.12 mph51%30.09 "HgN/A
12:00 PM75 °FSunny.8 mph65%30.12 "Hg10 mi
11:00 AM70 °FPartly sunny.5 mph83%30.18 "HgN/A
10:00 AM68 °FLight rain. Overcast.3 mph88%30.18 "HgN/A
9:00 AM68 °FOvercast.6 mph83%30.21 "HgN/A
8:00 AM66 °FOvercast.9 mph94%30.18 "HgN/A
7:00 AM66 °FOvercast.13 mph94%30.15 "HgN/A
6:00 AM70 °FLight rain. Overcast.15 mph78%30.15 "HgN/A
5:00 AM70 °FClear.12 mph78%30.15 "Hg10 mi
4:00 AM68 °FOvercast.5 mph88%30.07 "HgN/A
2:00 AM68 °FOvercast.5 mph88%30.07 "HgN/A
Weather by CustomWeather, © 2015

See weather overviewHow to use our weather pages